Location: Ciserano
(45.5833°N, 9.6000°E)
Time: 12:58:18
(UTC+00:00)

Lacrosse 4 Rocket - Pass Details

Date: 29 November 2020
Orbit: 537 x 620 km, 68.0° (Epoch: 26 January)

Event Time Altitude Azimuth Distance (km) Brightness Sun altitude
Exits shadow 03:38:11 28° 122° (ESE) 1,145 3.3 -31.1°
Drops below altitude 10° 03:40:24 10° 134° (SE) 1,951 4.6 -30.7°
Sets 03:42:42 0° 139° (SE) 2,861 5.5 -30.3°
